[[{"header":{"parameterUnit":"m.s-1","parameterCategory":1,"la1":30.2991,"la2":30.254,"lo1":-89.0895,"lo2":-89.0444,"dy":0.0017,"dx":0.0017,"nx":28,"ny":28,"refTime":"2024-12-01T09:00:00:Z","depth":0,"parameterNumber":2,"parameterNumberName":"U-component_of_WINDS"},"data":[0,0,0,0,0,0,0,0,0,0,0,0,0,0,0,0,0,0,0,0,0,0,0,0,0,0,0,0,0,0,0,0,0,0,0,0,0,0,0,0,0,0,0,0,0,0,0,0,0,0,0,0,0,0,0,0,0,0,-1.8643,-1.8644,0,-1.875,-1.8751,-1.8752,-1.8761,-1.8759,-1.8758,-1.8757,-1.8866,-1.887,-1.8874,0,0,0,0,0,0,0,0,0,0,0,0,0,-1.8444,-1.8447,-1.8643,-1.8644,-1.8645,-1.875,-1.8751,-1.8753,-1.8761,-1.8759,-1.8758,-1.8757,-1.8865,-1.8869,-1.8874,0,0,0,0,0,0,0,0,0,0,0,0,0,-1.8538,-1.8449,-1.8642,-1.8662,-1.8665,-1.875,-1.8751,-1.8753,-1.8761,-1.8759,-1.8758,-1.8756,-1.8863,-1.8869,-1.8875,-1.8947,0,0,-1.8893,-1.8896,0,0,0,0,0,0,0,0,-1.8533,-1.8546,-1.8658,-1.8661,-1.8664,-1.874,-1.8721,-1.8818,-1.8762,-1.8724,-1.8757,-1.8755,-1.8826,-1.8835,-1.8858,-1.8952,-1.8957,-1.8894,-1.8897,-1.89,-1.8902,0,0,0,0,0,0,0,-1.8527,-1.8541,-1.8685,-1.8659,-1.8663,-1.8665,-1.8677,-1.874,-1.8784,-1.8728,-1.8728,-1.8741,-1.8827,-1.8853,-1.8861,-1.8959,-1.8894,-1.8899,-1.8903,-1.8905,-1.9117,-1.9119,0,0,0,0,0,0,-1.8516,-1.8536,-1.8682,-1.8688,-1.8593,-1.867,-1.8683,-1.8717,-1.8783,-1.8791,-1.8742,-1.8741,-1.8843,-1.8854,-1.8865,-1.8953,-1.89,-1.8906,-1.8909,-1.9115,-1.9117,-1.9119,0,0,0,0,0,0,-1.8512,-1.8529,-1.8677,-1.8612,-1.8631,-1.8675,-1.8714,-1.8721,-1.8746,-1.8794,-1.8802,-1.8761,-1.8842,-1.8857,-1.8927,-1.8957,-1.8908,-1.8914,-1.9112,-1.9115,-1.9118,-1.9131,0,0,0,0,0,0,-1.8506,-1.8528,-1.8556,-1.8613,-1.8635,-1.8737,-1.8716,-1.8724,-1.8757,-1.8756,-1.8813,-1.8821,-1.8842,-1.8918,-1.8933,-1.8965,-1.8918,-1.911,-1.9114,-1.9117,-1.9128,-1.9134,-1.9139,0,0,0,0,0,-1.8499,-1.8555,-1.8557,-1.8575,-1.8671,-1.8739,-1.8752,-1.8775,-1.8759,-1.8788,-1.8818,-1.8819,-1.8952,-1.8925,-1.8942,-1.8976,-1.9108,-1.9113,-1.9117,-1.9125,-1.9133,-1.9139,0,0,0,0,0,0,-1.85,-1.8563,-1.8566,-1.8642,-1.8685,-1.874,-1.8777,-1.8782,-1.883,-1.8827,-1.8854,-1.8867,-1.8936,-1.8963,-1.8932,-1.9049,-1.9028,-1.9036,-1.9029,-1.9036,-1.9041,-1.9033,-1.8923,0,0,0,0,0,-1.8509,-1.856,-1.8612,-1.8674,-1.8695,-1.8732,-1.8763,-1.8777,-1.8823,-1.8841,-1.8877,-1.8921,-1.8973,-1.9006,-1.9056,-1.9132,-1.9144,-1.9164,-1.917,-1.9174,-1.918,-1.9222,-1.9231,-1.9134,-1.9134,-1.9134,0,0,-1.8528,-1.8569,-1.8599,-1.8675,-1.871,-1.8761,-1.8748,-1.8803,-1.8841,-1.885,-1.8918,-1.8946,-1.8997,-1.907,-1.9104,-1.9095,-1.921,-1.918,-1.9183,-1.9187,-1.9227,-1.9237,-1.9245,-1.9137,-1.9137,-1.9136,0,0,-1.8589,-1.8625,-1.868,-1.8716,-1.877,-1.8794,-1.8807,-1.8862,-1.8881,-1.895,-1.8957,-1.9003,-1.9092,-1.9128,-1.9157,-1.9232,-1.9235,-1.9248,-1.9277,-1.9317,-1.9324,-1.9331,-1.9357,-1.9366,-1.9254,-1.9254,-1.9254,0,-1.8606,-1.8684,-1.8708,-1.8763,-1.8796,-1.8807,-1.8862,-1.8896,-1.8963,-1.8985,-1.8974,-1.9085,-1.912,-1.9202,-1.922,-1.9244,-1.9259,-1.9241,-1.9321,-1.9329,-1.9335,-1.936,-1.937,-1.9255,-1.9255,-1.9255,-1.9255,0,-1.8701,-1.8755,-1.8793,-1.8858,-1.8895,-1.895,-1.8983,-1.9018,-1.9029,-1.9054,-1.9124,-1.9167,-1.9226,-1.9246,-1.9258,-1.933,-1.9322,-1.9316,-1.9295,-1.9345,-1.9369,-1.9379,-1.9257,-1.9257,-1.9256,-1.9256,0,0,-1.8764,-1.8842,-1.8856,-1.8885,-1.8945,-1.8987,-1.9043,-1.91,-1.9129,-1.9176,-1.9222,-1.9297,-1.9292,-1.9326,-1.9341,-1.9377,-1.9432,-1.9366,-1.9368,-1.9376,-1.9513,-1.9516,-1.9527,-1.9435,-1.9437,-1.9438,-1.9508,0,-1.8831,-1.893,-1.8954,-1.9039,-1.9088,-1.91,-1.9148,-1.919,-1.9215,-1.9261,-1.9289,-1.9341,-1.9331,-1.9351,-1.9387,-1.9418,-1.946,-1.9413,-1.9478,-1.948,-1.9463,-1.9539,-1.9543,-1.9607,-1.9518,-1.9519,-1.9521,0,-1.8922,-1.897,-1.906,-1.9113,-1.9135,-1.9178,-1.9232,-1.9276,-1.9324,-1.934,-1.9378,-1.939,-1.9448,-1.9425,-1.9505,-1.9473,-1.9501,-1.952,-1.9523,-1.9529,-1.9502,-1.9546,-1.9628,-1.9637,-1.9536,-1.9534,-1.9533,0,-1.8958,-1.9045,-1.911,-1.9135,-1.9199,-1.9229,-1.9257,-1.9303,-1.9336,-1.9384,-1.9405,-1.9459,-1.9489,-1.953,-1.9556,-1.9537,-1.9634,-1.9613,-1.9648,-1.9647,-1.9666,-1.9664,-1.9752,-1.9686,-1.9686,-1.9686,-1.9686,0,-1.9029,-1.9083,-1.9127,-1.9166,-1.9227,-1.9254,-1.9314,-1.9342,-1.9383,-1.9428,-1.9442,-1.9483,-1.9516,-1.9563,-1.9584,-1.9646,-1.9659,-1.9673,-1.9678,-1.9672,-1.9669,-1.9689,-1.9685,-1.9689,-1.9688,-1.9688,-1.9687,0,-1.9079,-1.911,-1.9181,-1.9236,-1.9252,-1.9294,-1.9341,-1.938,-1.9406,-1.9463,-1.9478,-1.9518,-1.9574,-1.9604,-1.9674,-1.9688,-1.9757,-1.976,-1.9741,-1.9743,-1.9775,-1.9771,-1.9878,-1.9893,-1.9818,-1.9818,-1.9819,0,-1.9121,-1.9163,-1.9223,-1.9254,-1.9283,-1.9333,-1.9367,-1.9395,-1.943,-1.9487,-1.9519,-1.9575,-1.9622,-1.9709,-1.9745,-1.9798,-1.9802,-1.9836,-1.981,-1.9802,-1.9801,-1.9798,-1.9801,-1.9839,-1.984,-1.9841,-1.9841,0,-1.9194,-1.9207,-1.9255,-1.9309,-1.9349,-1.9393,-1.9437,-1.9461,-1.9497,-1.9535,-1.9592,-1.9628,-1.9699,-1.9754,-1.981,-1.9839,-1.9846,-1.9849,-1.986,-1.9853,-1.984,-1.9846,-1.9752,-1.9846,-1.9846,-1.9845,-1.9845,-1.9845,-1.9241,-1.9278,-1.9326,-1.9379,-1.9415,-1.9455,-1.9494,-1.9525,-1.9573,-1.9633,-1.9647,-1.9706,-1.9753,-1.9829,-1.9859,-1.9906,-1.99,-1.9915,-1.9919,-1.9922,-1.9923,-1.9833,-1.9917,-1.9916,-1.9916,-1.9916,-1.9916,0,-1.9312,-1.9344,-1.9392,-1.9453,-1.9495,-1.9498,-1.9546,-1.9581,-1.9633,-1.9676,-1.9722,-1.9787,-1.9841,-1.9881,-1.9936,-1.9965,-1.997,-1.9979,-1.9976,-1.9982,-1.9926,-1.9911,-1.9974,-1.9974,-1.9974,-1.9974,-1.9974,-1.9974,-1.9355,-1.9418,-1.9437,-1.9518,-1.9549,-1.9608,-1.9635,-1.9672,-1.9706,-1.9778,-1.9823,-1.9849,-1.9891,-1.9949,-1.9998,-2.0009,-2.0028,-2.0036,-2.0047,-1.9993,-1.9986,-1.998,-1.9966,-2.004,-2.004,-2.0099,-2.01,-2.01]},{"header":{"parameterUnit":"m.s-1","parameterCategory":1,"la1":30.2991,"la2":30.254,"lo1":-89.0895,"lo2":-89.0444,"dy":0.0017,"dx":0.0017,"nx":28,"ny":28,"refTime":"2024-12-01T09:00:00:Z","depth":0,"parameterNumber":3,"parameterNumberName":"V-component_of_WINDS"},"data":[0,0,0,0,0,0,0,0,0,0,0,0,0,0,0,0,0,0,0,0,0,0,0,0,0,0,0,0,0,0,0,0,0,0,0,0,0,0,0,0,0,0,0,0,0,0,0,0,0,0,0,0,0,0,0,0,0,0,-0.6626,-0.6625,0,-0.66,-0.66,-0.6599,-0.6636,-0.6637,-0.6638,-0.6639,-0.6612,-0.6611,-0.6609,0,0,0,0,0,0,0,0,0,0,0,0,0,-0.6706,-0.6705,-0.6626,-0.6625,-0.6625,-0.66,-0.66,-0.6599,-0.6635,-0.6637,-0.6639,-0.664,-0.6613,-0.6611,-0.6608,0,0,0,0,0,0,0,0,0,0,0,0,0,-0.6675,-0.6704,-0.6626,-0.664,-0.6641,-0.66,-0.66,-0.6599,-0.6635,-0.6637,-0.6639,-0.6641,-0.6614,-0.6611,-0.6608,-0.6552,0,0,-0.6599,-0.6598,0,0,0,0,0,0,0,0,-0.6677,-0.6672,-0.6638,-0.6639,-0.664,-0.6623,-0.6618,-0.6583,-0.6635,-0.6637,-0.664,-0.6642,-0.6614,-0.6611,-0.6602,-0.655,-0.6549,-0.6599,-0.6597,-0.6596,-0.6595,0,0,0,0,0,0,0,-0.6679,-0.6673,-0.6615,-0.6638,-0.6639,-0.6648,-0.6646,-0.6612,-0.6615,-0.6637,-0.664,-0.6636,-0.6615,-0.6605,-0.6602,-0.6549,-0.6599,-0.6597,-0.6595,-0.6594,-0.6449,-0.6447,0,0,0,0,0,0,-0.6679,-0.6675,-0.6616,-0.6615,-0.6664,-0.6645,-0.6642,-0.6627,-0.6616,-0.6616,-0.6635,-0.6638,-0.6609,-0.6605,-0.6601,-0.6533,-0.6596,-0.6593,-0.6592,-0.6451,-0.6448,-0.6446,0,0,0,0,0,0,-0.6681,-0.6674,-0.6617,-0.6645,-0.6639,-0.6641,-0.6623,-0.6625,-0.6615,-0.6614,-0.6615,-0.6624,-0.661,-0.6605,-0.6564,-0.6533,-0.6592,-0.6589,-0.6453,-0.645,-0.6447,-0.6397,0,0,0,0,0,0,-0.6683,-0.6674,-0.6652,-0.6645,-0.6637,-0.658,-0.6622,-0.6623,-0.661,-0.6614,-0.6604,-0.6604,-0.6612,-0.6568,-0.6561,-0.653,-0.6587,-0.6456,-0.6452,-0.6448,-0.6402,-0.6393,-0.6385,0,0,0,0,0,-0.6686,-0.6639,-0.6651,-0.6644,-0.661,-0.6578,-0.6574,-0.6584,-0.6607,-0.6585,-0.6585,-0.6604,-0.6538,-0.6563,-0.6556,-0.6523,-0.6458,-0.6453,-0.6448,-0.6405,-0.6395,-0.6385,0,0,0,0,0,0,-0.6643,-0.6638,-0.6651,-0.6601,-0.659,-0.6584,-0.6557,-0.6572,-0.6553,-0.6558,-0.6572,-0.6569,-0.6524,-0.652,-0.6548,-0.6468,-0.6502,-0.6495,-0.6472,-0.6461,-0.6453,-0.6454,-0.6585,0,0,0,0,0,-0.6627,-0.6602,-0.66,-0.6555,-0.6549,-0.6554,-0.654,-0.6549,-0.6538,-0.6533,-0.6529,-0.6517,-0.6494,-0.6478,-0.6456,-0.6402,-0.64,-0.6377,-0.6369,-0.6362,-0.6355,-0.6326,-0.6315,-0.643,-0.643,-0.643,0,0,-0.6595,-0.659,-0.6572,-0.6546,-0.6539,-0.6511,-0.6549,-0.6519,-0.6499,-0.6528,-0.6488,-0.6485,-0.6473,-0.6425,-0.6403,-0.642,-0.6323,-0.6356,-0.635,-0.6347,-0.632,-0.6309,-0.6299,-0.6427,-0.6428,-0.6428,0,0,-0.6522,-0.6516,-0.6478,-0.647,-0.6458,-0.6462,-0.6453,-0.6445,-0.6444,-0.6405,-0.6426,-0.6403,-0.6362,-0.6352,-0.6342,-0.6267,-0.6283,-0.626,-0.6216,-0.6187,-0.6178,-0.617,-0.6141,-0.6131,-0.6254,-0.6254,-0.6254,0,-0.6483,-0.6443,-0.6456,-0.6424,-0.6412,-0.6439,-0.64,-0.6392,-0.6373,-0.6364,-0.6383,-0.6333,-0.6327,-0.6276,-0.6258,-0.6249,-0.6239,-0.626,-0.6178,-0.617,-0.6163,-0.6136,-0.6125,-0.6251,-0.6251,-0.6252,-0.6252,0,-0.6395,-0.6367,-0.6338,-0.6319,-0.6304,-0.6269,-0.6277,-0.626,-0.6272,-0.6273,-0.6233,-0.6227,-0.6204,-0.6193,-0.6204,-0.6144,-0.6155,-0.6176,-0.621,-0.6149,-0.6123,-0.6113,-0.6247,-0.6248,-0.6249,-0.6249,0,0,-0.6291,-0.6282,-0.627,-0.6262,-0.6252,-0.623,-0.6197,-0.6175,-0.616,-0.6147,-0.6118,-0.6085,-0.6105,-0.6093,-0.6103,-0.6078,-0.6017,-0.6102,-0.6102,-0.6085,-0.595,-0.5932,-0.592,-0.603,-0.6028,-0.6026,-0.595,0,-0.6216,-0.6158,-0.617,-0.6112,-0.6086,-0.6113,-0.6083,-0.6074,-0.6075,-0.6053,-0.6056,-0.603,-0.606,-0.6052,-0.6029,-0.6029,-0.599,-0.6036,-0.6002,-0.6,-0.6001,-0.5907,-0.5887,-0.5816,-0.5941,-0.5939,-0.5938,0,-0.6121,-0.6104,-0.6044,-0.6038,-0.6027,-0.6001,-0.5982,-0.5961,-0.5951,-0.5954,-0.5942,-0.5957,-0.5924,-0.596,-0.5914,-0.5945,-0.5933,-0.5931,-0.5929,-0.5924,-0.5963,-0.5897,-0.5793,-0.5782,-0.5923,-0.5924,-0.5925,0,-0.6048,-0.6011,-0.597,-0.5963,-0.5955,-0.5936,-0.5932,-0.5924,-0.5911,-0.5895,-0.5886,-0.5866,-0.5855,-0.584,-0.5849,-0.5875,-0.5801,-0.5839,-0.5802,-0.5801,-0.5782,-0.5783,-0.5673,-0.5779,-0.5779,-0.5779,-0.5779,0,-0.5962,-0.5923,-0.5938,-0.5912,-0.587,-0.5885,-0.5843,-0.5843,-0.5836,-0.5811,-0.5833,-0.5809,-0.5825,-0.5802,-0.581,-0.577,-0.5765,-0.5766,-0.5768,-0.5762,-0.5762,-0.5752,-0.5756,-0.5776,-0.5777,-0.5777,-0.5778,0,-0.5872,-0.588,-0.5837,-0.5834,-0.5833,-0.5802,-0.5799,-0.5775,-0.578,-0.5748,-0.5741,-0.5747,-0.5722,-0.5731,-0.5704,-0.5709,-0.5658,-0.5667,-0.566,-0.5662,-0.5624,-0.5626,-0.5501,-0.5485,-0.5603,-0.5602,-0.5601,0,-0.5815,-0.5786,-0.578,-0.5765,-0.576,-0.5735,-0.5721,-0.5736,-0.5721,-0.5708,-0.5686,-0.5663,-0.5645,-0.5603,-0.5605,-0.5584,-0.5592,-0.555,-0.5589,-0.5584,-0.5589,-0.559,-0.5586,-0.5541,-0.554,-0.5539,-0.5538,0,-0.5712,-0.5718,-0.5697,-0.5678,-0.5661,-0.5647,-0.5635,-0.5621,-0.5636,-0.5618,-0.5592,-0.5578,-0.5551,-0.5527,-0.5509,-0.5505,-0.5523,-0.5526,-0.5516,-0.5509,-0.5505,-0.5504,-0.5636,-0.5528,-0.5529,-0.553,-0.553,-0.5531,-0.5635,-0.5611,-0.5603,-0.5579,-0.5572,-0.556,-0.5538,-0.554,-0.5519,-0.5497,-0.5508,-0.5478,-0.547,-0.5448,-0.5441,-0.5418,-0.5435,-0.542,-0.5416,-0.5412,-0.5406,-0.5511,-0.5415,-0.5416,-0.5416,-0.5416,-0.5417,0,-0.5532,-0.5528,-0.5507,-0.5489,-0.5471,-0.5491,-0.5479,-0.5462,-0.5436,-0.5427,-0.5409,-0.538,-0.5357,-0.5358,-0.5338,-0.5319,-0.5327,-0.5313,-0.5313,-0.5311,-0.5394,-0.5403,-0.5307,-0.5307,-0.5307,-0.5307,-0.5307,-0.5307,-0.5475,-0.5434,-0.544,-0.5396,-0.5393,-0.5364,-0.5355,-0.5344,-0.5337,-0.5304,-0.5285,-0.5287,-0.5282,-0.5261,-0.5241,-0.5243,-0.5233,-0.5215,-0.5219,-0.5295,-0.5306,-0.5316,-0.5325,-0.5213,-0.5213,-0.5138,-0.5138,-0.5137]}]]